Date,TemperatureHighF,TemperatureAvgF,TemperatureLowF,DewpointHighF,DewpointAvgF,DewpointLowF,HumidityHigh,HumidityAvg,HumidityLow,PressureMaxIn,PressureMinIn,WindSpeedMaxMPH,WindSpeedAvgMPH,GustSpeedMaxMPH,PrecipitationSumIn
2012-1-2,54,48,40,32,25,17,50,40,24,30.15,30.00,21,9,22,0.00
2012-1-3,40,34,27,24,14,9,84,44,31,30.38,30.07,19,8,27,0.00
2012-1-4,46,37,26,35,24,16,81,59,35,30.45,30.23,10,2,14,0.00
2012-1-5,61,47,38,40,33,21,92,59,37,30.24,30.07,15,5,17,0.00
2012-1-6,62,50,37,51,44,35,97,81,51,30.20,30.08,9,1,15,0.00
2012-1-7,68,55,46,55,50,43,97,84,61,30.16,30.05,11,2,15,0.00
2012-1-8,70,57,49,59,54,48,98,88,66,30.25,30.14,7,1,9,0.01
2012-1-9,70,58,50,60,54,49,98,88,68,30.23,30.09,10,1,11,0.00
2012-1-10,67,58,50,59,55,50,98,89,73,30.10,29.96,12,2,15,0.00
2012-1-11,66,60,55,62,57,49,97,90,76,29.96,29.62,19,5,27,0.18
2012-1-12,62,56,48,57,50,44,89,81,63,29.86,29.70,17,6,31,0.00
2012-1-13,60,44,37,48,27,21,69,51,34,30.17,29.78,23,10,28,0.00
2012-1-14,52,43,34,33,24,16,75,49,28,30.32,30.17,15,7,20,0.00
2012-1-15,55,46,37,35,31,27,87,57,35,30.53,30.23,17,5,20,0.00
2012-1-16,56,48,36,48,40,34,94,77,51,30.58,30.38,17,4,18,0.00
2012-1-17,61,55,49,55,52,46,94,90,76,30.38,30.06,13,1,15,0.00
2012-1-18,66,57,46,59,50,28,97,81,25,30.06,29.95,11,3,17,0.07
2012-1-19,55,46,38,45,40,34,97,83,60,30.22,30.05,8,2,11,0.00
2012-1-20,63,55,42,58,49,39,99,82,45,30.20,30.11,9,2,14,0.00
2012-1-21,64,60,57,58,56,53,97,88,79,30.11,29.97,13,3,23,0.16
2012-1-22,57,52,47,56,51,45,98,95,91,30.27,30.06,17,6,20,0.01
2012-1-23,64,55,46,62,54,45,99,97,89,30.24,30.05,11,4,13,0.00
2012-1-24,69,60,52,64,59,52,99,95,84,30.22,30.06,6,1,10,0.01
2012-1-25,66,56,46,58,53,46,99,89,68,30.29,30.16,11,3,14,0.01
2012-1-26,71,64,58,65,61,56,99,92,78,30.16,29.88,17,6,19,0.00
2012-1-27,67,62,49,63,55,46,97,78,49,30.06,29.76,30,7,31,0.01
2012-1-28,66,53,42,47,43,34,98,73,31,30.19,30.05,13,3,17,0.00
2012-1-29,59,49,39,47,36,21,97,64,23,30.39,30.19,15,4,19,0.00
2012-1-30,61,48,34,41,34,19,97,65,20,30.49,30.36,12,2,16,0.00
2012-1-31,65,51,36,49,42,26,98,77,24,30.46,30.34,10,1,12,0.00
2012-2-1,69,54,45,58,50,44,97,87,62,30.34,30.20,10,1,15,0.01
2012-2-2,76,66,54,59,53,49,87,66,42,30.25,30.07,17,4,20,0.00
2012-2-3,61,56,53,53,46,35,84,68,44,30.42,30.25,21,9,27,0.00
2012-2-4,70,61,54,59,55,50,92,81,65,30.34,30.09,18,4,18,0.00
2012-2-5,76,65,56,63,59,52,96,83,56,30.13,29.96,20,4,25,0.00
2012-2-6,56,52,50,52,47,43,90,82,74,30.22,30.12,19,8,23,0.00
2012-2-14,57,55,53,53,51,45,92,85,74,30.12,30.05,8,2,9,0.03
2012-2-15,55,53,48,53,51,47,98,94,92,30.24,30.09,1,0,2,0.00
2012-2-16,67,59,48,64,58,47,99,94,84,30.23,30.01,6,1,9,0.01
2012-2-17,65,59,50,60,54,48,98,85,63,30.11,30.00,13,4,16,0.01
2012-2-18,66,57,48,57,52,47,97,85,64,30.09,29.88,13,5,16,0.49
2012-2-19,69,60,46,65,57,43,99,91,67,29.89,29.56,20,7,31,1.29
2012-2-20,54,46,40,43,38,32,94,75,43,30.32,29.88,18,6,24,0.00
2012-2-21,60,50,43,55,48,39,95,92,83,30.32,30.09,6,1,8,0.00
2012-2-22,68,58,50,59,55,50,98,89,67,30.10,29.75,15,3,21,0.01
2012-2-23,71,64,60,66,61,59,99,91,78,29.82,29.72,13,3,18,0.00
2012-2-24,70,65,58,66,60,39,95,86,50,29.95,29.70,22,6,27,0.07
2012-2-25,58,52,42,40,29,17,89,45,21,30.33,29.95,19,7,24,0.00
2012-2-26,56,48,40,47,39,30,95,71,55,30.49,30.32,18,7,19,0.00
2012-2-27,65,60,54,63,58,47,98,92,77,30.40,30.31,10,2,13,0.09
2012-2-28,68,60,54,59,53,40,98,82,37,30.37,30.29,22,7,25,0.00
2012-2-29,72,64,57,67,61,55,98,91,79,30.29,30.00,17,3,20,0.00
2012-3-1,65,63,62,63,62,60,96,95,92,30.02,29.91,9,2,12,0.00
2012-3-4,58,52,46,36,28,22,69,42,25,30.16,29.91,30,8,38,1.49
2012-3-5,68,57,42,40,33,22,90,44,19,30.46,30.15,21,7,35,0.00
2012-3-6,54,47,43,38,30,24,62,51,43,30.63,30.45,15,8,27,0.00
2012-3-7,66,61,57,56,55,54,93,83,65,30.48,30.41,15,4,16,0.00
2012-3-8,73,64,56,63,59,54,96,83,61,30.41,30.18,13,4,15,0.00
2012-3-9,74,65,60,65,62,47,97,88,63,30.25,30.10,12,3,17,0.07
2012-3-10,63,56,47,50,45,36,89,68,38,30.44,30.25,18,8,22,0.00
2012-3-11,65,58,50,56,52,47,91,80,71,30.50,30.41,19,8,23,0.00
2012-3-12,70,61,56,57,55,53,95,82,58,30.44,30.31,11,4,13,0.00
2012-3-13,73,66,59,62,60,58,96,82,63,30.31,30.20,9,2,12,0.04
2012-3-14,76,68,60,66,62,59,96,82,71,30.26,30.18,10,3,12,0.00
2012-3-15,73,63,58,66,61,57,98,93,76,30.31,30.23,5,1,8,0.00
2012-3-18,78,75,71,66,64,61,81,68,59,30.30,30.20,12,4,13,0.00
2012-3-27,63,61,60,56,53,50,81,76,64,30.27,30.25,13,7,17,0.17
2012-3-28,76,68,61,67,62,56,95,81,69,30.27,30.02,12,4,17,0.00
2012-3-29,84,73,68,66,64,57,91,76,39,30.04,29.88,12,3,16,0.00
2012-3-30,82,71,63,66,62,58,93,74,47,30.02,29.91,13,3,16,0.00
2012-3-31,76,71,67,68,66,64,97,87,66,29.95,29.77,16,4,19,0.11
2012-4-1,74,67,63,66,64,61,98,89,65,29.89,29.77,15,4,16,0.02
2012-4-2,89,75,68,68,65,57,94,74,34,29.91,29.74,17,4,19,0.00
2012-4-3,75,71,69,69,67,64,97,87,71,29.99,29.89,16,8,20,0.00
2012-4-4,79,72,65,70,67,60,98,85,65,29.92,29.70,17,4,26,0.36
2012-4-5,79,72,65,70,66,64,97,83,67,29.75,29.63,25,5,49,0.33
2012-4-6,66,58,51,65,54,45,97,87,59,30.08,29.67,20,7,23,0.27
2012-4-7,66,58,47,52,44,32,96,62,29,30.26,30.08,14,4,17,0.00
2012-4-8,74,66,57,60,54,50,86,68,47,30.22,30.04,12,4,17,0.00
2012-4-9,73,67,60,62,52,39,81,62,33,30.11,29.97,18,5,22,0.00
2012-4-10,75,68,59,62,53,39,89,63,30,30.06,29.90,14,4,17,0.00
2012-4-11,71,65,55,58,40,27,72,44,20,30.05,29.91,17,6,21,0.00
2012-4-12,62,55,47,48,38,30,93,56,35,30.24,30.05,21,8,33,0.00
2012-4-13,67,60,50,53,46,32,96,65,29,30.27,30.15,17,4,20,0.00
2012-4-14,72,65,55,63,58,49,93,78,66,30.32,30.24,15,5,19,0.00
2012-4-15,76,70,66,64,62,60,89,76,60,30.29,30.21,12,4,17,0.00
2012-4-16,78,72,67,67,64,58,88,77,52,30.27,30.17,14,4,18,0.00
2012-4-17,78,72,66,69,66,63,96,81,65,30.22,30.09,14,4,19,0.00
2012-4-18,77,71,65,68,66,64,97,84,70,30.12,29.98,12,4,17,0.01
2012-4-19,67,65,63,65,64,62,97,96,94,30.03,29.97,13,4,14,0.09
2012-4-25,69,69,69,64,63,61,85,82,76,29.98,29.93,13,5,16,0.00
2012-4-26,83,72,65,67,62,55,88,72,42,30.01,29.90,16,5,24,0.00
2012-4-27,79,72,66,68,65,61,88,78,61,30.07,29.97,19,4,19,0.00
2012-4-28,82,74,68,70,66,60,94,78,49,30.11,30.03,10,3,13,0.00
2012-4-29,79,74,66,72,69,65,97,85,73,30.16,30.09,11,3,14,0.00
2012-4-30,77,73,67,71,69,66,98,88,73,30.22,30.13,14,4,16,0.01
2012-5-1,79,74,68,71,69,67,98,84,67,30.20,30.11,13,4,16,0.00
2012-5-2,81,75,70,70,69,66,93,81,64,30.19,30.09,15,4,17,0.00
2012-5-3,81,75,68,72,69,67,97,82,65,30.17,30.09,13,3,15,0.00
2012-5-4,81,75,71,73,70,69,96,86,75,30.12,30.00,10,2,13,0.00
2012-5-5,90,83,78,74,72,68,87,72,48,29.94,29.81,16,6,18,0.00
2012-5-6,82,75,69,73,69,67,95,81,62,29.97,29.84,16,6,21,0.03
2012-5-7,78,73,71,70,68,67,89,85,75,30.01,29.92,20,8,22,0.00
2012-5-8,75,73,70,68,66,64,83,79,67,29.97,29.92,14,7,17,0.00
2012-5-9,78,73,66,73,70,65,97,91,80,29.84,29.69,13,4,17,1.03
2012-5-10,78,70,61,66,59,50,97,72,38,29.94,29.73,13,4,15,0.01
2012-5-11,76,70,63,65,62,52,96,77,44,30.21,29.94,20,5,22,0.00
2012-5-12,72,71,68,64,62,61,84,74,71,30.21,30.19,6,3,7,0.00
2012-5-13,76,73,70,68,66,64,88,77,70,30.21,30.09,17,7,21,0.02
2012-5-14,80,75,71,72,69,65,93,83,72,30.10,29.94,16,6,18,0.06
2012-5-15,81,76,72,73,71,69,92,86,73,30.01,29.91,14,4,18,0.00
2012-5-16,81,75,73,73,71,67,94,87,64,29.97,29.92,7,2,9,0.00
2012-5-20,72,71,70,67,66,64,86,84,76,30.00,29.98,10,7,15,0.05
2012-5-21,81,72,66,71,67,63,96,86,56,30.00,29.89,13,5,15,0.13
2012-5-22,75,72,70,72,69,68,95,91,85,29.92,29.85,8,1,9,0.00
2012-5-23,80,75,67,73,69,62,92,81,70,29.92,29.83,17,5,20,0.02
2012-5-24,84,78,72,75,73,69,97,86,63,30.00,29.90,17,4,20,0.00
2012-5-25,85,77,71,74,72,68,99,86,57,30.07,29.97,15,5,19,0.00
2012-5-26,87,79,71,72,70,66,96,76,50,30.07,29.97,20,6,25,0.00
2012-5-27,81,78,73,75,72,68,91,82,76,29.99,29.93,27,13,33,0.11
2012-5-28,80,77,72,75,73,70,94,87,78,30.00,29.93,21,12,32,0.86
2012-5-30,87,78,71,74,70,67,97,77,54,29.87,29.56,20,7,22,0.56
2012-5-31,85,78,72,75,72,70,95,83,65,29.89,29.84,14,4,15,0.00
2012-6-1,83,79,74,76,74,69,93,85,76,29.88,29.76,17,5,24,0.09
2012-6-2,80,76,72,75,71,64,94,86,57,29.85,29.77,11,4,13,0.00
2012-6-3,85,80,71,72,62,56,83,56,38,29.99,29.88,15,6,18,0.00
2012-6-4,81,77,73,74,70,67,89,78,67,29.89,29.72,18,5,21,0.18
2012-6-5,76,72,68,71,67,63,89,85,77,29.86,29.69,13,4,17,0.00
2012-6-6,74,71,68,71,67,65,97,90,75,29.97,29.80,17,6,24,0.99
2012-6-7,78,72,66,67,64,58,92,77,55,30.03,29.94,15,6,21,0.00
2012-6-8,78,74,70,68,65,60,90,73,54,30.05,29.97,18,6,19,0.00
2012-6-9,79,75,67,70,68,64,96,79,64,30.10,30.01,15,5,16,0.00
2012-6-10,80,78,75,76,73,68,95,85,72,30.18,30.01,15,8,19,0.19
2012-6-11,82,75,69,76,72,68,98,91,82,30.20,30.06,17,6,27,1.91
2012-6-12,82,77,73,76,74,71,96,90,79,30.06,29.88,14,4,19,0.09
2012-6-13,77,75,72,75,72,70,97,90,85,29.95,29.88,5,2,9,0.15
2012-6-14,83,76,70,72,69,60,96,80,47,30.05,29.93,16,6,19,0.01
2012-6-15,80,76,72,68,65,58,86,68,50,30.14,30.09,19,9,22,0.00
2012-6-16,79,73,68,68,64,55,92,74,46,30.20,30.10,17,6,20,0.00
2012-6-17,77,71,68,67,66,62,96,87,62,30.15,30.09,12,3,14,0.00
2012-6-22,82,80,78,74,71,65,86,73,60,29.96,29.90,11,4,15,0.00
2012-6-23,85,81,76,78,75,73,95,83,68,30.00,29.89,11,3,15,0.00
2012-6-24,86,81,75,78,75,72,97,84,66,30.00,29.90,13,4,20,0.00
2012-6-25,81,78,76,76,74,71,97,86,79,29.92,29.67,19,6,23,0.35
2012-6-26,76,73,66,76,70,62,98,91,73,29.78,29.67,20,8,29,0.37
2012-6-27,83,74,65,68,61,56,94,65,41,29.98,29.77,21,8,24,0.00
2012-6-28,88,78,67,72,68,58,98,72,38,30.06,29.97,10,3,14,0.01
2012-6-29,91,83,78,79,75,69,92,76,57,29.97,29.80,10,3,13,0.00
2012-6-30,89,83,80,81,78,76,93,85,71,29.91,29.82,10,3,13,0.00
2012-7-1,90,84,75,82,78,66,95,83,58,30.09,29.89,28,4,31,0.01
2012-7-2,88,79,74,74,71,68,88,77,63,30.08,29.99,14,4,16,0.00
2012-7-7,84,84,84,79,78,77,84,82,80,30.04,29.99,9,3,15,0.00
2012-7-8,90,84,80,79,76,74,87,80,64,30.06,30.03,10,4,14,0.00
2012-7-12,85,82,78,77,76,73,93,81,73,30.11,30.03,16,6,21,0.54
2012-7-13,86,82,77,78,76,75,94,82,71,30.15,30.06,15,6,19,0.03
2012-7-14,85,82,78,77,76,74,90,80,70,30.19,30.10,16,5,19,0.14
2012-7-15,85,80,76,78,75,73,95,84,69,30.18,30.09,16,4,20,0.04
2012-7-16,88,82,75,77,75,73,97,81,63,30.11,29.96,10,2,13,0.28
2012-7-17,89,83,78,77,75,72,92,78,64,30.00,29.94,10,2,14,0.00
2012-7-18,87,82,77,78,76,73,97,84,67,30.06,29.96,15,3,17,0.03
2012-7-19,89,83,78,78,76,73,89,80,65,30.10,30.01,18,5,23,0.00
2012-7-20,89,82,78,80,75,72,89,79,62,30.06,29.97,18,6,25,0.00
2012-7-21,89,83,78,78,75,71,86,76,66,30.12,30.03,14,4,18,0.00
2012-7-22,89,85,81,80,78,76,90,81,72,30.19,30.08,12,4,16,0.00
2012-7-23,88,84,78,79,77,73,94,79,67,30.20,30.10,11,3,16,0.00
2012-7-24,90,84,73,81,77,71,95,79,62,30.10,29.91,25,6,33,0.18
2012-7-25,91,83,73,80,78,72,95,83,65,29.98,29.89,13,4,16,0.00
2012-7-26,92,86,82,81,79,76,89,81,65,29.95,29.88,15,4,23,0.00
2012-7-27,92,84,76,82,78,72,94,82,68,29.98,29.90,20,5,33,0.09
2012-7-28,89,84,79,81,78,74,92,83,76,30.03,29.93,15,4,22,0.03
2012-7-29,90,83,76,82,77,72,95,84,71,30.00,29.91,19,3,27,0.18
2012-7-30,82,77,70,77,75,68,97,91,80,29.99,29.89,16,3,32,1.54
2012-7-31,86,77,71,80,74,70,98,91,78,29.98,29.89,12,2,16,0.76
2012-8-1,87,79,76,77,76,74,98,91,69,29.95,29.88,11,2,11,0.01
2012-8-7,83,79,76,78,75,73,94,87,81,30.02,29.98,9,3,14,0.43
2012-8-8,83,78,74,77,75,73,97,91,76,30.04,29.95,9,2,11,0.40
2012-8-9,87,80,73,79,76,71,98,88,69,30.00,29.88,16,3,25,0.35
2012-8-10,88,81,73,78,76,71,97,84,69,29.94,29.87,18,5,23,0.54
2012-8-11,87,80,73,78,75,71,97,85,70,29.98,29.88,17,4,20,0.67
2012-8-12,87,82,76,78,76,73,94,84,68,30.01,29.93,13,4,18,0.00
2012-8-13,89,82,76,78,75,69,97,80,53,30.05,29.96,10,2,13,0.00
2012-8-14,91,84,76,78,75,71,93,77,54,30.01,29.90,17,4,17,0.00
2012-8-15,91,84,78,80,76,72,89,79,55,29.99,29.90,12,4,15,0.00
2012-8-16,80,78,77,74,73,72,88,83,77,29.99,29.96,5,1,8,0.00
2012-8-17,88,82,74,79,75,71,97,79,66,29.97,29.86,13,3,18,0.02
2012-8-18,89,82,76,80,76,73,93,83,60,29.91,29.82,11,3,13,0.00
2012-8-19,86,81,74,80,76,71,95,87,74,29.91,29.84,22,2,28,0.37
2012-8-20,84,79,76,76,74,72,94,85,68,29.96,29.86,10,4,16,0.01
2012-8-21,82,76,74,74,73,72,95,89,74,30.02,29.93,6,1,8,0.02
2012-8-26,83,80,77,75,73,70,93,79,69,30.08,30.03,13,5,16,0.01
2012-8-27,84,80,76,79,76,74,96,90,79,30.06,29.98,19,7,21,0.00
2012-8-28,81,78,75,79,76,73,97,95,89,30.02,29.95,9,3,15,1.97
2012-8-29,86,80,73,79,76,72,97,90,77,30.10,29.93,15,3,21,1.29
2012-8-30,81,77,73,76,74,72,98,92,83,30.16,29.95,8,2,10,0.12
2012-8-31,85,80,74,78,76,74,98,87,74,30.23,30.13,10,2,11,0.01
2012-9-1,89,82,76,81,78,75,98,86,73,30.17,30.05,10,2,13,0.00
2012-9-2,88,83,78,81,78,75,94,85,72,30.07,29.96,13,3,14,0.00
2012-9-3,86,82,79,78,76,73,91,82,73,30.05,29.98,13,4,17,0.00
2012-9-4,84,82,79,78,75,73,88,82,75,30.01,29.93,15,6,17,0.00
2012-9-5,85,82,79,78,76,74,89,82,73,29.99,29.91,12,4,16,0.00
2012-9-6,89,83,77,78,76,73,95,81,61,30.00,29.90,11,3,12,0.00
2012-9-7,89,82,78,79,76,74,89,83,65,29.96,29.86,9,3,14,0.05
2012-9-8,82,80,79,78,76,75,90,88,86,29.87,29.84,12,3,12,0.00
2012-9-11,80,79,78,59,57,55,51,47,43,30.25,30.24,15,10,19,0.00
2012-9-15,80,76,74,73,72,72,94,88,78,30.10,30.08,9,2,11,0.01
2012-9-16,79,73,70,74,71,70,98,95,83,30.12,30.07,6,1,7,0.00
2012-9-17,82,79,71,76,74,70,97,83,75,30.06,29.93,22,8,24,0.03
2012-9-18,83,80,78,77,76,74,91,86,83,29.93,29.82,18,9,23,0.15
2012-9-19,77,72,70,70,67,65,87,85,77,30.08,30.00,16,8,17,0.00
2012-9-20,78,72,66,70,67,63,92,86,75,30.11,30.02,12,4,14,0.00
2012-9-21,79,74,67,70,67,65,95,82,64,30.08,30.01,12,3,12,0.00
2012-9-22,82,75,69,72,70,67,95,83,67,30.06,29.97,11,2,13,0.00
2012-9-23,76,73,66,73,70,64,94,90,87,30.08,29.99,6,1,6,0.00
2012-9-24,78,70,63,66,62,58,96,79,55,30.16,30.06,20,5,22,0.01
2012-9-25,78,71,63,67,63,55,93,77,52,30.22,30.14,14,4,18,0.00
2012-9-26,81,74,64,73,68,63,95,84,71,30.20,30.13,15,5,19,0.00
2012-9-27,82,75,70,72,69,67,97,82,62,30.19,30.09,17,4,19,0.00
2012-9-28,85,76,68,72,70,66,96,84,53,30.11,30.00,9,2,13,0.00
2012-9-29,84,76,70,72,71,68,98,85,61,30.02,29.85,9,2,18,0.02
2012-9-30,79,75,70,74,71,66,95,88,78,29.91,29.82,9,2,10,0.01
2012-10-1,84,78,74,79,75,72,97,91,82,29.83,29.77,12,3,17,0.00
2012-10-3,79,76,74,73,72,70,93,86,80,30.19,30.12,8,1,10,0.02
2012-10-4,81,75,70,74,72,69,97,90,79,30.23,30.16,8,2,13,0.00
2012-10-5,81,75,71,73,70,65,96,85,60,30.17,30.02,13,4,16,0.00
2012-10-6,83,76,70,74,71,69,97,87,68,30.02,29.89,10,2,12,0.01
2012-10-7,84,78,73,76,74,72,98,87,68,30.00,29.92,10,2,12,0.00
2012-10-8,79,63,56,75,62,55,98,95,88,30.09,29.99,16,8,22,1.22
2012-10-9,66,58,54,58,55,53,98,91,75,30.14,30.06,14,5,17,0.00
2012-10-10,73,65,55,63,60,54,97,85,64,30.15,30.02,12,3,14,0.01
2012-10-11,72,64,59,62,58,53,98,80,62,30.26,30.12,15,5,18,0.00
2012-10-12,76,67,58,65,61,57,98,82,56,30.24,30.14,8,1,11,0.01
2012-10-13,74,67,63,66,61,58,95,80,66,30.33,30.22,19,8,24,0.00
2012-10-14,79,68,63,67,63,60,95,85,63,30.26,30.05,16,6,19,0.00
2012-10-15,79,72,66,74,69,62,98,91,77,30.05,29.77,10,1,14,0.15
2012-10-16,71,64,57,62,54,47,91,72,45,29.96,29.84,17,4,23,0.00
2012-10-17,72,65,58,62,59,56,96,83,67,29.99,29.89,11,2,14,0.00
2012-10-18,77,70,63,71,67,62,98,90,77,29.90,29.79,9,2,13,0.06
2012-10-19,76,72,67,72,59,45,95,69,35,29.86,29.75,15,3,18,0.02
2012-10-20,74,66,57,63,52,45,94,63,39,29.95,29.82,10,3,14,0.00
2012-10-21,72,62,55,58,53,48,95,75,48,30.15,29.94,12,4,18,0.00
2012-10-22,73,61,53,56,52,45,96,77,39,30.23,30.13,12,3,14,0.01
2012-10-26,76,71,69,65,64,63,86,79,68,29.82,29.76,21,11,24,0.00
2012-10-27,69,68,66,65,63,58,94,85,74,29.75,29.54,26,11,29,0.12
2012-10-28,75,67,62,58,56,54,78,68,49,29.64,29.56,17,8,21,0.00
2012-10-29,64,57,50,55,43,38,79,61,44,29.69,29.55,22,11,26,0.00
2012-10-30,59,53,48,39,35,30,67,53,33,29.77,29.58,26,11,28,0.00
2012-10-31,67,56,48,47,35,25,71,47,21,29.85,29.75,20,9,25,0.00
2012-11-1,67,57,50,46,36,24,78,50,21,29.95,29.81,17,6,22,0.00
2012-11-2,73,58,43,56,43,29,91,59,39,30.02,29.87,10,2,16,0.00
2012-11-3,66,59,50,58,48,39,95,71,40,30.11,29.95,9,2,13,0.00
2012-11-4,74,66,60,66,62,58,96,87,72,30.04,29.89,14,2,21,0.28
2012-11-5,63,57,51,60,51,44,97,82,50,30.04,29.91,14,5,18,0.00
2012-11-6,55,51,44,50,46,41,94,84,71,30.01,29.86,19,7,21,0.07
2012-11-7,53,45,40,44,41,37,94,85,68,29.98,29.85,14,4,15,0.00
2012-11-8,63,49,41,45,41,34,95,77,35,30.15,29.98,15,4,17,0.00
2012-11-9,54,47,42,44,41,38,91,79,56,30.27,30.14,8,2,13,0.00
2012-11-11,70,63,59,61,60,58,97,89,75,30.37,30.34,7,3,12,0.00
2012-11-12,76,67,60,67,63,59,98,87,68,30.34,30.19,12,2,15,0.01
2012-11-13,76,63,53,67,60,51,97,90,73,30.27,30.14,18,4,20,0.33
2012-11-14,53,51,49,52,47,45,94,87,82,30.36,30.23,20,9,21,0.00
2012-11-15,52,49,46,50,47,44,97,94,88,30.25,30.15,19,9,25,0.16
2012-11-18,52,51,50,51,50,49,97,97,96,30.22,30.16,20,11,24,0.58
2012-11-19,57,54,52,52,51,50,97,92,85,30.20,30.14,18,10,23,0.00
2012-11-20,52,51,50,50,50,48,96,93,92,30.07,30.07,3,1,3,0.00
2012-11-21,63,54,46,51,46,41,97,79,46,30.12,30.04,19,4,20,0.01
2012-11-23,65,58,53,53,50,40,91,75,44,30.12,29.95,8,2,11,0.00
2012-11-24,61,53,42,50,42,37,88,68,42,30.09,29.94,12,4,15,0.00
2012-11-25,59,47,40,48,41,32,96,79,60,30.19,30.08,11,3,14,0.00
2012-11-26,56,44,40,48,42,38,98,94,49,30.26,30.14,5,0,7,0.01
2012-12-2,57,56,56,56,56,56,97,97,97,30.28,30.28,0,0,0,0.00
2012-12-3,72,61,52,65,59,51,98,93,74,30.34,30.25,5,1,7,0.01
2012-12-4,72,62,56,65,60,56,98,92,76,30.35,30.24,6,0,9,0.00
2012-12-5,72,60,50,61,56,50,99,87,64,30.24,30.10,7,1,9,0.01
2012-12-6,63,58,55,57,55,50,97,88,79,30.18,30.10,16,7,20,0.00
2012-12-7,62,56,52,57,53,49,96,89,82,30.10,29.98,13,5,17,0.00
2012-12-8,68,57,50,60,54,49,98,91,72,30.11,30.01,4,0,6,0.00
2012-12-9,63,55,53,62,54,52,98,97,97,30.13,30.07,1,0,2,0.01
2012-12-11,61,61,60,59,59,58,93,93,91,30.07,30.04,6,3,7,0.00
2012-12-12,60,54,48,58,53,47,97,95,89,30.17,30.05,15,6,18,0.59
2012-12-13,49,46,43,47,44,42,97,94,87,30.32,30.16,21,8,23,0.08
2012-12-14,59,49,44,47,44,41,95,83,56,30.37,30.21,14,5,17,0.00
2012-12-15,53,52,52,47,45,44,80,76,73,30.22,30.16,12,5,13,0.00
2012-12-23,51,51,49,46,45,44,83,82,80,30.15,30.13,2,0,4,0.00
2012-12-24,60,53,46,55,48,42,96,85,63,30.14,29.96,7,0,12,0.16
2012-12-25,58,56,50,56,54,50,98,96,91,30.07,29.91,12,4,15,0.25
2012-12-26,66,58,43,64,54,34,99,85,57,29.91,29.56,29,9,33,0.43
2012-12-27,53,44,38,41,37,33,96,76,59,30.08,29.85,17,6,24,0.00
2012-12-28,55,46,36,49,43,35,98,89,71,30.15,29.92,7,2,9,0.00
2012-12-29,62,52,43,62,48,34,99,85,66,30.08,29.68,20,8,32,1.12
2012-12-30,51,41,34,35,31,27,95,71,39,30.43,30.08,20,5,24,0.00
2012-12-31,57,44,30,47,38,30,98,83,53,30.43,30.21,6,1,8,0.00
2013-1-1,61,55,46,59,52,45,97,92,84,30.21,29.96,8,1,10,0.00